カタログに戻る

CZ-4 DEB

運用中SSO
NORAD 26150·DEBRIS·🇨🇳 China

打ち上げ Oct 14, 1999 から Taiyuan Satellite Launch Center

Loading…

次のパス (今後24時間)

TLE

最新Source: Space-Track

元期: Sep 14, 2026, 04:27 UTC

1 26150U 99057AL  26257.18545064  .00001214  00000-0  74515-3 0  9992
2 26150  99.0916 333.1896 0342438 199.3358 189.3773 13.82144451327693

AllMySatでCZ-4 DEBをリアルタイム追跡

Download on the App Store